Date,TemperatureHighF,TemperatureAvgF,TemperatureLowF,DewpointHighF,DewpointAvgF,DewpointLowF,HumidityHigh,HumidityAvg,HumidityLow,PressureMaxIn,PressureMinIn,WindSpeedMaxMPH,WindSpeedAvgMPH,GustSpeedMaxMPH,PrecipitationSumIn
2013-1-1,21.4,4.6,-16.2,18.9,1.1,-20.6,90,85,79,30.35,30.08,16,2,16,0.00
2013-1-2,24.3,19.9,16.1,20.9,17.3,12.6,93,90,83,30.14,29.96,18,4,18,0.00
2013-1-3,17.7,12.2,6.8,14.5,8.2,2.5,92,84,75,30.32,30.11,17,5,17,0.00
2013-1-4,29.4,19.1,6.2,20.2,14.1,3.4,90,81,67,30.16,30.04,16,2,17,0.00
2013-1-5,25.3,12.8,0.9,17.1,8.9,-2.3,100,85,70,30.12,29.90,14,2,14,0.00
2013-1-6,20.2,15.2,11.0,15.3,11.3,6.2,92,84,78,30.27,30.10,13,3,13,0.00
2013-1-7,35.9,29.8,20.1,27.5,24.5,16.9,90,80,71,29.98,29.90,14,4,22,0.00
2013-1-8,32.4,23.9,8.9,28.7,20.9,6.4,94,88,82,29.98,29.74,20,3,20,0.00
2013-1-9,35.4,29.5,20.7,30.3,23.7,16.9,93,79,70,30.35,29.92,27,6,27,0.00
2013-1-10,39.6,35.5,28.1,33.5,29.1,24.5,96,78,59,30.27,29.69,17,5,17,0.15
2013-1-11,38.2,36.1,34.5,37.7,35.4,33.5,98,97,96,29.70,29.34,18,4,18,0.01
2013-1-12,35.2,12.5,2.7,34.5,7.6,-2.2,98,80,72,30.13,29.35,30,8,30,0.00
2013-1-13,7.8,3.6,0.4,1.8,-1.2,-4.0,92,80,75,30.25,30.11,12,2,12,0.00
2013-1-14,11.7,8.5,1.5,5.4,3.6,-2.0,88,80,72,30.48,30.31,6,1,12,0.00
2013-1-15,27.7,16.4,0.7,20.5,11.3,-2.5,92,80,69,30.32,29.82,21,4,21,0.00
2013-1-16,35.8,25.5,7.7,33.1,19.7,-1.3,94,78,60,30.28,29.66,27,7,27,0.00
2013-1-17,19.7,11.8,3.9,11.7,4.3,-3.7,82,71,61,30.44,30.27,14,2,14,0.00
2013-1-18,38.3,28.6,16.8,31.1,24.2,11.7,92,83,73,30.31,29.74,16,3,16,0.00
2013-1-19,39.1,20.8,1.5,32.8,16.1,-4.3,97,82,66,30.30,29.68,41,9,41,0.01
2013-1-20,7.7,2.5,-0.6,2.5,-3.8,-6.3,80,74,67,30.47,30.30,22,5,22,0.00
2013-1-21,-3.2,-7.4,-11.0,-9.7,-13.2,-16.8,94,75,67,30.44,30.37,14,3,20,0.00
2013-1-22,5.4,-4.6,-15.9,1.5,-10.3,-20.3,85,76,70,30.51,30.32,11,1,11,0.00
2013-1-23,13.2,5.9,-5.0,7.7,-1.4,-13.1,88,72,55,30.69,30.22,31,6,31,0.00
2013-1-24,14.6,2.7,-5.9,5.1,-5.7,-14.3,76,67,63,30.74,30.20,19,4,19,0.00
2013-1-25,18.4,11.2,1.3,13.5,4.5,-4.0,81,74,65,30.36,30.00,33,7,33,0.00
2013-1-26,22.7,10.5,-4.9,14.7,4.2,-8.7,87,76,65,30.40,30.13,13,2,17,0.00
2013-1-27,32.8,27.2,21.2,31.0,21.9,14.2,95,80,71,30.13,29.83,15,2,15,0.01
2013-1-28,35.7,33.5,29.8,34.6,32.6,29.0,97,97,95,29.88,29.63,15,2,15,0.13
2013-1-29,35.7,32.3,26.9,33.1,29.6,22.7,98,90,81,29.78,29.52,23,7,23,0.02
2013-1-30,27.0,16.4,7.1,22.7,11.4,2.2,92,80,74,29.82,29.70,28,12,28,0.00
2013-1-31,7.1,-0.5,-8.3,2.2,-6.4,-14.1,82,75,70,30.36,29.82,24,11,27,0.00
2013-2-1,3.0,-4.3,-14.0,-0.5,-9.7,-18.6,85,77,69,30.40,30.13,15,2,17,0.00
2013-2-2,9.4,5.1,-1.4,6.3,0.7,-5.8,87,82,71,30.26,30.03,13,2,13,0.00
2013-2-3,12.9,9.7,4.5,8.1,4.7,-0.0,91,79,72,30.16,30.03,19,3,19,0.00
2013-2-4,16.2,10.2,-3.6,13.8,3.8,-7.5,90,75,63,30.13,29.76,17,3,17,0.00
2013-2-5,29.6,21.1,1.7,27.1,17.2,-1.4,94,85,72,30.10,29.68,22,4,22,0.00
2013-2-6,26.6,16.1,1.2,21.4,12.8,-1.8,92,87,79,30.12,29.94,15,3,16,0.00
2013-2-7,28.0,25.0,21.1,23.9,22.1,16.8,94,89,80,30.29,30.03,21,11,21,0.00
2013-2-8,26.1,20.9,6.2,23.0,17.4,3.7,93,86,79,30.39,30.20,20,4,20,0.00
2013-2-9,32.6,28.9,26.1,30.6,26.6,23.0,95,91,88,30.20,29.90,20,7,20,0.00
2013-2-10,32.2,29.9,28.4,31.5,28.5,26.6,97,94,91,29.91,29.30,21,8,21,0.00
2013-2-11,29.4,21.9,12.0,27.6,17.5,9.0,95,83,77,30.06,29.39,29,8,29,0.00
2013-2-12,31.8,22.4,12.5,24.0,18.1,9.9,92,84,71,30.06,29.82,16,3,16,0.01
2013-2-13,36.2,28.1,19.0,31.8,25.1,16.7,97,88,76,29.83,29.57,14,1,14,0.05
2013-2-14,33.1,24.1,8.7,32.0,18.0,1.4,97,78,46,30.22,29.61,23,5,23,0.00
2013-2-15,17.0,8.9,1.0,9.1,3.2,-2.2,87,77,63,30.37,30.22,14,3,16,0.00
2013-2-16,15.7,6.9,-0.2,9.0,3.1,-3.7,91,84,73,30.33,30.13,10,1,10,0.00
2013-2-17,31.7,16.7,0.3,26.0,12.6,-2.9,93,84,77,30.15,29.72,25,5,25,0.00
2013-2-18,33.4,18.0,5.6,31.6,13.3,0.9,94,82,75,29.89,29.52,31,12,32,0.00
2013-2-19,5.5,1.0,-7.1,0.9,-5.5,-12.3,81,73,65,30.47,29.89,26,10,27,0.00
2013-2-20,11.5,-0.2,-15.1,3.0,-5.9,-19.5,86,76,67,30.56,30.47,11,1,11,0.00
2013-2-21,21.9,10.7,-8.4,17.4,4.8,-12.2,95,77,66,30.52,30.12,17,6,17,0.00
2013-2-22,26.7,23.1,20.7,23.2,20.5,17.4,93,90,82,30.12,29.89,18,6,18,0.01
2013-2-23,29.1,20.4,5.1,23.5,17.2,2.3,93,88,77,29.99,29.87,12,2,12,0.01
2013-2-24,31.9,14.6,3.8,22.8,10.5,0.9,92,84,67,30.15,29.99,9,0,9,0.02
2013-2-25,32.9,21.8,8.1,25.3,17.6,5.1,91,84,72,30.15,30.06,10,0,10,0.00
2013-2-26,33.3,22.8,7.7,27.8,19.4,4.9,95,87,76,30.09,29.93,20,5,20,0.00
2013-2-27,40.7,29.8,21.5,28.1,23.5,19.0,93,78,57,30.07,29.91,25,8,25,0.00
2013-2-28,29.9,27.5,20.0,24.5,22.0,14.3,89,80,75,30.25,30.07,16,7,20,0.00
2013-3-1,27.5,21.5,7.4,19.4,16.0,3.6,92,79,70,30.39,30.24,17,6,17,0.00
2013-3-2,25.7,14.3,-4.9,17.8,8.4,-8.4,91,78,65,30.40,30.19,9,1,9,0.00
2013-3-3,32.8,26.2,21.3,17.5,14.8,11.7,78,63,43,30.19,29.96,21,4,21,0.00
2013-3-4,28.7,25.5,23.5,23.3,21.0,17.1,93,84,62,30.03,29.92,22,5,22,0.00
2013-3-5,29.4,25.4,21.6,26.0,23.1,17.9,94,91,83,30.34,29.97,19,6,19,0.02
2013-3-6,26.5,21.3,3.1,21.8,17.2,0.1,98,84,76,30.44,30.34,13,2,13,0.00
2013-3-7,31.2,22.6,-0.6,21.4,16.3,-3.8,92,77,64,30.42,30.30,17,4,17,0.01
2013-3-8,36.8,26.2,10.7,31.0,22.2,8.4,94,85,73,30.34,30.08,14,2,14,0.02
2013-3-9,37.3,35.5,33.8,36.5,34.3,30.7,97,95,83,30.09,29.67,16,3,16,0.48
2013-3-10,35.0,34.9,34.8,33.5,33.1,32.7,95,93,92,29.82,29.80,21,11,21,0.00
2013-3-11,29.6,26.3,22.5,23.4,20.9,17.0,86,80,72,29.91,29.77,16,7,26,0.00
2013-3-12,28.3,23.5,18.9,21.0,17.3,14.0,84,77,62,30.25,29.85,29,7,29,0.00
2013-3-13,28.7,19.6,8.8,20.5,14.7,6.1,90,81,66,30.42,30.25,12,2,13,0.00
2013-3-14,38.2,30.0,24.5,28.9,25.1,20.4,93,82,68,30.25,30.02,13,2,13,0.02
2013-3-15,33.8,30.6,24.2,31.5,28.4,22.2,94,91,87,30.02,29.83,20,7,20,0.11
2013-3-16,24.2,18.0,9.1,22.2,11.7,3.3,92,76,68,30.29,29.93,17,6,20,0.00
2013-3-17,27.9,16.3,2.7,22.2,8.4,-2.3,81,71,60,30.31,29.84,21,6,21,0.00
2013-3-18,31.9,21.5,11.3,30.5,17.3,5.9,96,84,74,29.87,29.60,30,10,32,0.00
2013-3-19,19.5,12.1,6.2,7.3,3.5,0.4,80,68,52,30.27,29.87,29,11,29,0.00
2013-3-20,19.1,11.7,6.3,7.6,2.7,-1.4,73,67,57,30.31,30.18,27,9,27,0.00
2013-3-21,25.7,12.5,-4.9,12.2,4.5,-8.5,88,71,54,30.20,30.10,10,1,10,0.00
2013-3-22,38.2,17.6,-1.9,18.8,9.7,-5.3,89,73,43,30.15,30.08,10,1,10,0.00
2013-3-23,37.2,24.6,8.9,23.8,17.2,6.3,91,74,50,30.20,30.11,11,1,11,0.00
2013-3-24,33.0,28.4,24.6,27.6,23.0,20.8,94,80,68,30.14,30.00,21,7,21,0.01
2013-3-25,36.1,30.3,24.5,27.5,20.6,17.6,94,67,52,30.26,30.08,22,9,23,0.00
2013-3-26,37.0,26.5,15.6,24.4,19.3,12.7,92,75,55,30.33,30.26,11,1,11,0.00
2013-3-27,39.2,26.3,10.5,23.6,18.0,8.1,93,73,50,30.38,30.33,8,1,10,0.00
2013-3-28,42.3,30.1,14.1,29.9,22.8,12.0,94,76,56,30.36,30.27,17,2,17,0.00
2013-3-29,47.6,38.9,30.3,39.7,33.7,25.8,88,82,71,30.29,30.01,14,2,14,0.01
2013-3-30,46.0,40.3,33.3,41.2,36.8,31.0,94,87,79,30.02,29.86,21,3,21,0.18
2013-3-31,36.1,32.7,21.8,33.2,26.5,15.4,96,79,57,30.14,29.79,31,9,31,0.01
2013-4-1,31.4,23.5,16.3,19.9,16.0,11.5,82,73,57,30.31,30.14,20,6,20,0.00
2013-4-2,34.4,25.8,15.8,20.7,17.7,13.4,94,73,50,30.38,30.29,18,3,18,0.00
2013-4-3,46.1,33.3,17.3,37.7,26.6,15.4,100,77,61,30.40,30.02,28,6,28,0.00
2013-4-4,45.9,40.2,31.1,35.3,31.6,25.0,89,71,55,30.19,29.99,25,7,27,0.00
2013-4-5,38.9,33.2,26.5,33.0,27.2,21.4,92,79,55,30.24,29.86,20,5,21,0.00
2013-4-6,51.7,41.5,36.2,44.9,36.3,32.4,90,82,71,29.86,29.52,21,6,21,0.06
2013-4-7,46.5,38.6,35.1,39.7,33.8,30.8,92,83,74,29.93,29.76,15,4,17,0.00
2013-4-8,43.9,41.1,37.8,42.0,39.3,36.2,98,94,88,30.06,29.67,18,9,19,0.05
2013-4-9,40.4,36.7,32.3,36.0,30.8,27.1,89,79,67,30.20,29.99,32,14,33,0.01
2013-4-10,38.3,35.5,33.3,31.9,27.4,23.2,93,73,61,30.19,29.90,35,12,35,0.00
2013-4-11,35.9,32.0,28.5,32.7,29.7,25.9,97,92,68,29.91,29.70,26,13,27,0.14
2013-4-12,34.9,30.8,27.5,30.6,28.3,26.4,96,91,78,29.86,29.70,17,6,18,0.02
2013-4-13,37.6,32.3,29.2,29.2,27.2,24.8,95,82,62,29.95,29.84,13,3,15,0.04
2013-4-14,36.0,32.2,29.8,35.0,28.6,25.4,97,86,76,29.94,29.47,27,5,27,0.33
2013-4-15,38.9,35.9,32.6,34.9,30.6,28.2,95,81,74,29.98,29.47,23,10,28,0.07
2013-4-16,40.9,35.7,31.8,31.2,29.0,27.1,86,77,65,30.33,29.97,21,5,22,0.00
2013-4-17,39.4,35.6,31.3,34.1,31.1,27.6,95,84,76,30.32,29.97,23,8,23,0.03
2013-4-18,33.4,32.5,31.2,32.1,31.3,30.2,98,95,92,29.98,29.59,26,12,28,0.13
2013-4-19,37.8,32.8,28.8,30.6,26.2,21.3,98,78,54,30.02,29.56,32,11,32,0.02
2013-4-20,37.2,29.7,17.2,24.0,19.4,13.6,92,68,38,30.31,30.02,13,1,13,0.00
2013-4-21,47.6,38.6,32.3,43.9,35.0,22.3,95,87,64,30.31,30.00,24,6,25,0.15
2013-4-22,39.6,35.4,31.8,34.6,31.1,28.6,96,85,68,30.23,30.13,27,12,27,0.00
2013-4-23,38.9,32.6,24.5,31.0,25.5,21.4,96,76,55,30.21,30.08,20,5,20,0.01
2013-4-24,49.0,36.4,25.7,36.5,30.4,23.5,95,80,46,30.09,29.91,30,5,30,0.06
2013-4-25,50.5,39.8,30.6,36.6,31.5,26.5,91,74,45,30.20,30.00,20,5,20,0.01
2013-4-26,44.9,44.7,44.7,34.4,34.4,34.3,67,67,67,30.02,30.01,12,5,12,0.00
2013-4-27,72.9,55.8,34.1,48.8,39.1,32.5,96,60,28,30.11,29.82,8,2,20,0.00
2013-4-28,80.0,71.8,50.3,54.5,50.7,46.6,87,50,34,29.82,29.59,23,9,28,0.00
2013-4-29,72.3,59.5,45.0,52.8,43.5,34.7,82,58,30,29.79,29.47,9,4,17,0.00
2013-4-30,67.0,62.3,53.3,60.1,46.7,32.8,86,59,30,29.89,29.31,13,7,26,0.00
2013-5-1,52.7,42.3,34.7,38.5,31.6,27.7,92,66,57,30.48,29.93,12,7,22,0.05
2013-5-2,45.9,41.2,34.7,30.0,27.1,25.2,75,58,46,30.57,30.44,27,12,27,0.00
2013-5-3,42.7,36.4,31.2,35.3,29.2,25.1,91,75,58,30.45,30.17,28,12,28,0.01
2013-5-4,43.6,38.1,33.4,41.0,36.0,31.2,94,92,88,30.19,30.13,20,11,20,0.10
2013-5-5,64.0,46.5,38.6,51.2,41.8,36.3,93,84,62,30.19,30.07,16,6,16,0.00
2013-5-6,71.9,57.9,41.0,53.7,48.4,40.0,97,73,49,30.10,29.97,3,1,15,0.00
2013-5-7,76.3,67.5,44.9,54.6,49.1,43.8,97,55,34,30.03,29.89,17,3,17,0.00
2013-5-8,73.3,61.6,54.5,59.8,53.3,48.0,92,76,47,29.97,29.90,23,4,23,0.07
2013-5-9,57.7,52.8,43.1,55.3,48.6,34.9,93,86,68,30.11,29.91,27,11,27,0.03
2013-5-10,66.0,47.6,35.3,34.9,30.8,19.2,80,57,22,30.13,29.94,15,6,15,0.00
2013-5-11,55.9,47.6,39.8,42.2,25.8,22.6,77,43,33,30.18,29.88,33,11,39,0.00
2013-5-12,59.0,42.9,28.0,29.3,23.5,16.2,90,53,21,30.23,30.09,26,5,26,0.00
2013-5-13,78.5,65.7,35.0,51.6,44.9,28.0,84,49,34,30.09,29.59,29,5,29,0.00
2013-5-14,96.8,72.0,46.4,58.0,48.1,34.6,92,49,17,29.65,29.38,31,6,31,0.00
2013-5-15,80.3,66.6,50.7,52.5,47.8,40.8,79,53,31,29.86,29.65,25,4,25,0.00
2013-5-16,80.5,68.9,48.1,49.8,45.3,35.8,91,47,28,29.87,29.77,21,4,21,0.00
2013-5-17,67.7,59.3,56.1,56.9,51.5,34.4,96,80,31,29.92,29.82,20,3,20,0.40
2013-5-18,78.5,63.3,57.0,68.9,60.4,55.8,98,91,70,29.90,29.71,16,3,20,1.53
2013-5-19,77.5,68.2,62.8,69.7,64.7,61.9,98,89,69,29.71,29.48,25,3,25,0.93
2013-5-20,63.9,62.9,62.0,63.3,62.0,60.7,98,97,95,29.50,29.43,7,1,12,0.02